TimeCET,TemperatureF,Dew PointF,Humidity,Sea Level PressureIn,VisibilityMPH,Wind Direction,Wind SpeedMPH,Gust SpeedMPH,PrecipitationIn,Events,Conditions,WindDirDegrees,DateUTC
5:30 AM,44.6,42.8,93,30.12,6.2,Variable,1.2,-,N/A,,Mostly Cloudy,0,2013-02-13 04:30:00
6:00 AM,44.6,42.8,93,30.12,6.2,Calm,Calm,-,N/A,,Mostly Cloudy,0,2013-02-13 05:00:00
6:30 AM,44.6,42.8,93,30.12,6.2,Variable,1.2,-,N/A,Rain,Light Rain,0,2013-02-13 05:30:00
7:00 AM,44.6,42.8,93,30.12,6.2,Variable,2.3,-,N/A,Rain,Light Rain,0,2013-02-13 06:00:00
7:30 AM,44.6,42.8,93,30.15,6.2,Variable,1.2,-,N/A,,Mostly Cloudy,0,2013-02-13 06:30:00
8:00 AM,44.6,42.8,93,30.15,6.2,South,3.5,-,N/A,,Light Drizzle,170,2013-02-13 07:00:00
8:30 AM,44.6,42.8,93,30.15,6.2,Variable,2.3,-,N/A,,Mostly Cloudy,0,2013-02-13 07:30:00
9:00 AM,44.6,44.6,100,30.15,6.2,Variable,1.2,-,N/A,,Mostly Cloudy,0,2013-02-13 08:00:00
9:30 AM,46.4,44.6,93,30.18,6.2,Variable,1.2,-,N/A,,Mostly Cloudy,0,2013-02-13 08:30:00
10:00 AM,48.2,44.6,87,30.18,6.2,Variable,1.2,-,N/A,,Mostly Cloudy,0,2013-02-13 09:00:00
10:30 AM,48.2,44.6,87,30.18,5.0,Variable,2.3,-,N/A,,Light Drizzle,0,2013-02-13 09:30:00
11:00 AM,48.2,44.6,87,30.21,6.2,Variable,2.3,-,N/A,,Mostly Cloudy,0,2013-02-13 10:00:00
11:30 AM,48.2,46.4,93,30.21,6.2,Variable,1.2,-,N/A,,Mostly Cloudy,0,2013-02-13 10:30:00
12:00 PM,50.0,46.4,87,30.21,6.2,Calm,Calm,-,N/A,,Mostly Cloudy,0,2013-02-13 11:00:00
12:30 PM,50.0,46.4,87,30.21,5.0,Calm,Calm,-,N/A,Rain,Light Rain,0,2013-02-13 11:30:00
1:00 PM,48.2,46.4,93,30.21,4.3,Calm,Calm,-,N/A,Rain,Light Rain,0,2013-02-13 12:00:00
1:30 PM,48.2,44.6,87,30.21,2.2,Calm,Calm,-,N/A,Rain,Light Rain,0,2013-02-13 12:30:00
2:00 PM,48.2,44.6,87,30.21,1.9,Calm,Calm,-,N/A,Rain,Light Rain,0,2013-02-13 13:00:00
2:30 PM,46.4,46.4,100,30.21,1.9,Variable,1.2,-,N/A,Rain,Light Rain,0,2013-02-13 13:30:00
3:00 PM,48.2,46.4,93,30.21,2.5,Variable,1.2,-,N/A,Rain,Light Rain,0,2013-02-13 14:00:00
3:30 PM,48.2,46.4,93,30.21,2.5,Variable,1.2,-,N/A,,Light Drizzle,0,2013-02-13 14:30:00
4:00 PM,48.2,46.4,93,30.21,2.8,NNE,3.5,-,N/A,,Light Drizzle,30,2013-02-13 15:00:00
4:30 PM,48.2,46.4,93,30.21,2.8,Variable,1.2,-,N/A,Rain,Light Rain,0,2013-02-13 15:30:00
5:00 PM,46.4,46.4,100,30.21,2.2,Variable,1.2,-,N/A,Rain,Light Rain,0,2013-02-13 16:00:00
5:30 PM,48.2,46.4,93,30.21,2.5,Calm,Calm,-,N/A,Rain,Light Rain,0,2013-02-13 16:30:00
6:00 PM,48.2,46.4,93,30.21,2.8,Calm,Calm,-,N/A,Rain,Light Rain,0,2013-02-13 17:00:00
6:30 PM,48.2,46.4,93,30.24,2.5,Calm,Calm,-,N/A,,Light Drizzle,0,2013-02-13 17:30:00
7:00 PM,48.2,46.4,93,30.24,2.5,Calm,Calm,-,N/A,,Light Drizzle,0,2013-02-13 18:00:00
7:30 PM,48.2,46.4,93,30.24,1.9,Calm,Calm,-,N/A,,Light Drizzle,0,2013-02-13 18:30:00
8:00 PM,48.2,46.4,93,30.24,1.9,Calm,Calm,-,N/A,,Light Drizzle,0,2013-02-13 19:00:00
8:30 PM,48.2,46.4,93,30.24,1.9,Variable,1.2,-,N/A,,Light Drizzle,0,2013-02-13 19:30:00
9:00 PM,48.2,46.4,93,30.24,1.9,Calm,Calm,-,N/A,Rain,Rain,0,2013-02-13 20:00:00
9:30 PM,48.2,48.2,100,30.24,2.2,Calm,Calm,-,N/A,Rain,Light Rain,0,2013-02-13 20:30:00